Weather History for Canadian, TX

Change the Weather History Date:

Saturday, April 12, 2014

  Actual Average (KPPA) Record (KPPA)
Temperature  
Mean Temperature 76 °F -  
Max Temperature 95 °F 70 °F 93 °F (1972)
Min Temperature 58 °F 42 °F 30 °F (1989)
Cooling Degree Days 12    
Growing Degree Days 26 (Base 50)    
Moisture  
Dew Point 27 °F    
Average Humidity 25    
Maximum Humidity 58    
Minimum Humidity 4    
Precipitation  
Precipitation 0.00 in - - ()
Sea Level Pressure  
Sea Level Pressure 29.67 in    
Wind  
Wind Speed 9 mph (SW)    
Max Wind Speed 24 mph    
Max Gust Speed 34 mph    
Visibility 10 miles    
Events      
Averages and records for this station are not official NWS values.
T = Trace of Precipitation, MM = Missing Value Source: NWS Daily Summary

Daily Weather History Graph

Daily Weather History Graph

Search for Another Location

Airport:

Trip Planner

Search our weather history database for the weather conditions in past years. The results will help you decide how hot, cold, wet, or windy it might be!

Date:

Astronomy

Apr. 12, 2014 Rise Set
Actual Time 7:12 AM CDT 8:12 PM CDT
Civil Twilight 6:46 AM CDT 8:38 PM CDT
Nautical Twilight 6:15 AM CDT 9:10 PM CDT
Astronomical Twilight 5:43 AM CDT 9:42 PM CDT
Moon 5:57 PM CDT (4/12) 5:35 AM CDT (4/12)
Length of Visible Light 13h 52m
Length of Day
13h 00m
Waxing Gibbous, 93% of the Moon is Illuminated
Apr 12
Waxing Gibbous
Apr 15
Full
Apr 22
Last Quarter
Apr 29
New
May 6
First Quarter

Hourly Weather History & Observations

Time (CDT) Temp. Dew Point Humidity Pressure Visibility Wind Dir Wind Speed Gust Speed Precip Events Conditions
12:15 AM 68.4 °F 49.5 °F 51% 29.84 in 10.0 mi South 10.4 mph - N/A   Clear
12:35 AM 68.0 °F 49.5 °F 51% 29.84 in 10.0 mi SSE 10.4 mph - N/A   Clear
12:55 AM 68.2 °F 49.3 °F 51% 29.83 in 10.0 mi SSE 9.2 mph - N/A   Clear
1:15 AM 67.5 °F 49.1 °F 52% 29.83 in 10.0 mi SSE 9.2 mph - N/A   Clear
1:35 AM 66.7 °F 49.1 °F 53% 29.83 in 10.0 mi South 6.9 mph - N/A   Clear
1:55 AM 65.5 °F 48.6 °F 54% 29.82 in 10.0 mi SSE 4.6 mph - N/A   Clear
2:15 AM 65.8 °F 48.4 °F 53% 29.81 in 10.0 mi South 4.6 mph - N/A   Clear
2:35 AM 66.2 °F 47.8 °F 52% 29.80 in 10.0 mi South 8.1 mph - N/A   Clear
2:55 AM 65.5 °F 48.2 °F 54% 29.80 in 10.0 mi SSW 6.9 mph - N/A   Clear
3:15 AM 65.7 °F 47.7 °F 52% 29.79 in 10.0 mi SSW 6.9 mph 17.3 mph N/A   Clear
3:35 AM 62.6 °F 47.3 °F 57% 29.78 in 10.0 mi WSW 4.6 mph - N/A   Clear
3:55 AM 62.6 °F 46.9 °F 57% 29.77 in 10.0 mi WSW 6.9 mph - N/A   Clear
4:15 AM 62.6 °F 46.2 °F 55% 29.77 in 10.0 mi SW 6.9 mph - N/A   Clear
4:35 AM 61.9 °F 45.5 °F 55% 29.76 in 10.0 mi WSW 8.1 mph - N/A   Clear
4:55 AM 61.7 °F 44.6 °F 53% 29.75 in 10.0 mi WSW 5.8 mph - N/A   Clear
5:15 AM 64.0 °F 43.7 °F 48% 29.75 in 10.0 mi SW 4.6 mph - N/A   Clear
5:35 AM 62.8 °F 43.3 °F 49% 29.76 in 10.0 mi SW 6.9 mph - N/A   Clear
5:55 AM 62.1 °F 43.2 °F 50% 29.76 in 10.0 mi Calm Calm - N/A   Clear
6:15 AM 62.1 °F 42.8 °F 49% 29.75 in 10.0 mi Calm Calm - N/A   Clear
6:35 AM 61.0 °F 42.8 °F 51% 29.75 in 10.0 mi Calm Calm - N/A   Clear
6:55 AM 59.4 °F 42.8 °F 54% 29.75 in 10.0 mi SW 3.5 mph - N/A   Clear
7:15 AM 58.1 °F 43.2 °F 58% 29.74 in 10.0 mi Calm Calm - N/A   Clear
7:35 AM 61.7 °F 43.0 °F 50% 29.74 in 10.0 mi SW 4.6 mph - N/A   Clear
7:55 AM 60.1 °F 42.3 °F 52% 29.74 in 10.0 mi Calm Calm - N/A   Clear
8:15 AM 59.9 °F 41.9 °F 51% 29.75 in 10.0 mi Calm Calm - N/A   Clear
8:35 AM 62.4 °F 40.3 °F 44% 29.75 in 10.0 mi Calm Calm - N/A   Clear
8:55 AM 64.4 °F 39.2 °F 40% 29.75 in 10.0 mi SSW 3.5 mph - N/A   Clear
9:15 AM 67.1 °F 38.3 °F 35% 29.74 in 10.0 mi Calm Calm - N/A   Clear
9:35 AM 72.7 °F 31.6 °F 22% 29.74 in 10.0 mi SSW 8.1 mph - N/A   Clear
9:55 AM 75.2 °F 30.6 °F 19% 29.73 in 10.0 mi SW 9.2 mph - N/A   Clear
10:15 AM 78.4 °F 27.9 °F 16% 29.73 in 10.0 mi SW 6.9 mph - N/A   Clear
10:35 AM 81.0 °F 26.8 °F 14% 29.73 in 10.0 mi WSW 8.1 mph - N/A   Clear
10:55 AM 84.4 °F 22.3 °F 10% 29.72 in 10.0 mi West 8.1 mph - N/A   Clear
11:15 AM 86.9 °F 16.2 °F 7% 29.72 in 10.0 mi West 11.5 mph - N/A   Clear
11:35 AM 88.5 °F 13.1 °F 6% 29.72 in 10.0 mi West 11.5 mph - N/A   Clear
11:55 AM 90.5 °F 11.8 °F 5% 29.70 in 10.0 mi West 11.5 mph - N/A   Clear
12:15 PM 91.0 °F 7.9 °F 4% 29.69 in 10.0 mi West 12.7 mph 18.4 mph N/A   Clear
12:35 PM 92.7 °F 3.9 °F 4% 29.68 in 10.0 mi SSW 13.8 mph 19.6 mph N/A   Clear
12:55 PM 93.0 °F 2.8 °F 4% 29.67 in 10.0 mi SW 17.3 mph 23.0 mph N/A   Clear
1:15 PM 93.0 °F 4.8 °F 4% 29.65 in 10.0 mi SW 17.3 mph 25.3 mph N/A   Clear
1:35 PM 93.6 °F 5.2 °F 4% 29.64 in 10.0 mi SW 15.0 mph - N/A   Clear
1:55 PM 93.4 °F 5.7 °F 4% 29.63 in 10.0 mi SW 17.3 mph 24.2 mph N/A   Clear
2:15 PM 93.2 °F 6.4 °F 4% 29.62 in 10.0 mi SSW 21.9 mph 29.9 mph N/A   Clear
2:35 PM 95.0 °F 6.8 °F 4% 29.61 in 10.0 mi WSW 17.3 mph 34.5 mph N/A   Clear
2:55 PM 93.6 °F 7.0 °F 4% 29.59 in 10.0 mi SSW 16.1 mph 27.6 mph N/A   Clear
3:15 PM 93.4 °F 5.7 °F 4% 29.59 in 10.0 mi SW 13.8 mph 25.3 mph N/A   Clear
3:35 PM 95.0 °F 6.3 °F 4% 29.59 in 10.0 mi WSW 21.9 mph 27.6 mph N/A   Clear
3:55 PM 93.2 °F 4.5 °F 4% 29.57 in 10.0 mi WSW 18.4 mph 27.6 mph N/A   Clear
4:15 PM 93.4 °F 5.7 °F 4% 29.56 in 10.0 mi WSW 12.7 mph 25.3 mph N/A   Clear
4:35 PM 93.2 °F 5.0 °F 4% 29.55 in 10.0 mi WSW 19.6 mph 31.1 mph N/A   Clear
4:55 PM 93.4 °F 7.7 °F 4% 29.55 in 10.0 mi WSW 18.4 mph 29.9 mph N/A   Clear
5:15 PM 92.3 °F 9.3 °F 5% 29.54 in 10.0 mi WSW 15.0 mph 29.9 mph N/A   Clear
5:35 PM 91.8 °F 9.7 °F 5% 29.55 in 10.0 mi WSW 24.2 mph 31.1 mph N/A   Clear
5:55 PM 90.9 °F 9.7 °F 5% 29.55 in 10.0 mi WSW 17.3 mph - N/A   Clear
6:15 PM 90.5 °F 10.0 °F 5% 29.55 in 10.0 mi SW 17.3 mph 25.3 mph N/A   Clear
6:35 PM 90.5 °F 14.7 °F 6% 29.55 in 10.0 mi SW 23.0 mph 32.2 mph N/A   Clear
6:55 PM 89.1 °F 15.8 °F 7% 29.55 in 10.0 mi SW 17.3 mph 32.2 mph N/A   Clear
7:15 PM 88.5 °F 16.3 °F 7% 29.55 in 10.0 mi SW 20.7 mph 31.1 mph N/A   Clear
7:35 PM 87.8 °F 16.7 °F 7% 29.55 in 10.0 mi SW 17.3 mph 21.9 mph N/A   Clear
7:55 PM 86.0 °F 17.4 °F 8% 29.55 in 10.0 mi SW 12.7 mph - N/A   Clear
8:15 PM 83.1 °F 18.3 °F 9% 29.54 in 10.0 mi SSW 6.9 mph - N/A   Clear
8:35 PM 79.7 °F 19.6 °F 11% 29.54 in 10.0 mi South 6.9 mph - N/A   Clear
8:55 PM 77.7 °F 20.8 °F 12% 29.54 in 10.0 mi Calm Calm - N/A   Clear
9:15 PM 76.3 °F 21.0 °F 13% 29.54 in 10.0 mi SW 3.5 mph - N/A   Clear
9:35 PM 77.5 °F 21.4 °F 12% 29.55 in 10.0 mi South 12.7 mph - N/A   Clear
9:55 PM 79.9 °F 22.5 °F 12% 29.55 in 10.0 mi SSW 10.4 mph - N/A   Clear
10:15 PM 80.2 °F 23.0 °F 12% 29.55 in 10.0 mi SSW 11.5 mph - N/A   Clear
10:35 PM 79.7 °F 23.5 °F 13% 29.55 in 10.0 mi SSW 15.0 mph - N/A   Clear
10:55 PM 79.0 °F 23.5 °F 13% 29.54 in 10.0 mi SSW 16.1 mph - N/A   Clear
11:15 PM 78.1 °F 23.9 °F 13% 29.54 in 10.0 mi SSW 15.0 mph - N/A   Clear
11:35 PM 77.5 °F 24.6 °F 14% 29.53 in 10.0 mi SSW 12.7 mph - N/A   Clear
11:55 PM 77.7 °F 25.3 °F 14% 29.53 in 10.0 mi SSW 15.0 mph - N/A   Clear